Regional Weather Roundup
Issued by NWS Jackson, KY

Home | Current Version | Previous Version | Graphics & Text | Print | Product List | Glossary On
Versions: 1 2 3 4 5 6 7 8 9 10 11 12 13 14 15 16 17 18 19 20 21 22 23 24 25 26 27 28 29 30 31 32 33 34 35 36 37 38 39 40 41 42 43 44 45 46 47 48 49 50
000
ASUS43 KJKL 252310
RWRJKL

EAST KENTUCKY HOURLY WEATHER ROUNDUP
NATIONAL WEATHER SERVICE JACKSON KY
700 PM EDT SAT OCT 25 2014

NOTE: "FAIR" INDICATES FEW OR NO CLOUDS BELOW 12,000 FEET WITH
NO SIGNIFICANT WEATHER AND/OR OBSTRUCTIONS TO VISIBILITY.

* THESE REPORTS ARE NOT UNDER NWS QUALITY CONTROL AND MAY NOT
  REPORT WEATHER SUCH AS PRECIPITATION AND FOG.

KYZ079-080-083-085-087-088-110-112-115-119-120-260000
...EASTERN KENTUCKY...

CITY           SKY/WX    TMP DP  RH WIND       PRES   REMARKS
JACKSON        CLEAR     63  52  67 CALM      29.98S
LONDON         PTCLDY    67  54  63 SW5       30.00R
SOMERSET*      CLEAR     63  54  72 CALM      30.01F
MONTICELLO*    CLEAR     65  56  72 CALM      30.02S
MIDDLESBORO*   CLOUDY    62  53  72 CALM      30.01S
HARLAN APT*    PTCLDY    61  50  67 N7        30.02R
HAZARD APT*    CLEAR     64  54  68 SW6       29.99
BLACK MTN*       N/A     54  50  87 SW2         N/A
PIKEVILLE APT* CLEAR     63  50  63 SW3       29.97R
BIG SANDY*     PTCLDY    63  52  68 W5        29.97R HAZE
MOREHEAD APT*  CLEAR     66  57  72 SW7       29.98R
$$

KYZ035-036-041-042-044-050-067-078-099-260000
...CENTRAL KENTUCKY...

CITY           SKY/WX    TMP DP  RH WIND       PRES   REMARKS
MT STERLING*   CLEAR     64  59  82 W7        29.98R
FLEMING/MASON* CLEAR     63  57  82 SW7       29.95S
DANVILLE*      CLEAR     64  55  72 SW3       30.01R
RICHMOND*      CLEAR     66  55  68 W6        29.98S
LEXINGTON      CLEAR     69  57  65 W6        29.98R
FRANKFORT      CLEAR     68  56  65 W5        29.96S
$$

KYZ091>093-OHZ055-061-077-WVZ005-015-034-035-042-260000
...SOUTHERN OHIO/WEST VIRGINIA...

CITY           SKY/WX    TMP DP  RH WIND       PRES   REMARKS
COVINGTON      PTCLDY    70  51  51 W6        29.92F
COLUMBUS       CLEAR     68  48  48 W9        29.83S
DAYTON         PTCLDY    69  47  45 W12       29.89S
WILMINGTON     CLEAR     65  52  62 SW9       29.89S
HUNTINGTON     CLEAR     63  54  72 SW6       29.92S
CHARLESTON     PTCLDY    63  49  60 SW9       29.91R
PINEVILLE*     CLOUDY    59  54  84 MISG      30.01S
BECKLEY        PTCLDY    57  44  62 W9        29.96S
BLUEFIELD      CLEAR     59  43  55 W10       29.98S
$$

VAZ002-007-008-TNZ017-027-036-066-071-260000
...SOUTHWEST VIRGINIA/EAST TENNESSEE...

CITY           SKY/WX    TMP DP  RH WIND       PRES   REMARKS
WISE*          MOCLDY    59  45  58 SW8       30.02F
JONESVILLE*    CLEAR     63  50  63 CALM      30.02F
ABINGDON*      MOCLDY    62  47  59 W3        30.01S
BRISTOL        CLOUDY    62  49  62 SW6       30.01S
KNOXVILLE      CLOUDY    66  51  58 SW7       30.01R
OAK RIDGE      CLEAR     67  51  56 SW3       30.03R
CROSSVILLE     CLEAR     63  55  75 W3        30.05F
NASHVILLE      PTCLDY    74  62  66 NW6       30.01R
$$

...KEY TO REMARKS...
VSB - VISIBILITY IN MILES
WCI - WIND CHILL INDEX
HX  - HEAT INDEX

$$



USA.gov is the U.S. government's official web portal to all federal, state and local government web resources and services.